TimeCDT,TemperatureF,Dew PointF,Humidity,Sea Level PressureIn,VisibilityMPH,Wind Direction,Wind SpeedMPH,Gust SpeedMPH,PrecipitationIn,Events,Conditions,WindDirDegrees,DateUTC
12:15 AM,74.3,69.4,85,29.92,10.0,SSE,3.5,-,N/A,,Clear,160,2013-08-30 05:15:00
12:35 AM,73.0,69.1,87,29.92,10.0,Calm,Calm,-,N/A,,Clear,0,2013-08-30 05:35:00
12:55 AM,72.5,69.1,89,29.92,10.0,ESE,3.5,-,N/A,,Clear,120,2013-08-30 05:55:00
1:15 AM,72.5,68.9,88,29.92,10.0,Calm,Calm,-,N/A,,Clear,0,2013-08-30 06:15:00
1:35 AM,72.5,68.9,88,29.92,10.0,SE,3.5,-,N/A,,Clear,140,2013-08-30 06:35:00
1:55 AM,72.0,68.9,90,29.92,10.0,Calm,Calm,-,N/A,,Clear,0,2013-08-30 06:55:00
2:15 AM,71.1,67.8,89,29.92,10.0,SSE,4.6,-,N/A,,Clear,160,2013-08-30 07:15:00
2:35 AM,70.7,68.0,91,29.92,10.0,South,3.5,-,N/A,,Clear,180,2013-08-30 07:35:00
2:55 AM,71.6,68.2,89,29.91,10.0,Calm,Calm,-,N/A,,Clear,0,2013-08-30 07:55:00
3:15 AM,70.7,67.5,89,29.91,10.0,SSE,3.5,-,N/A,,Clear,150,2013-08-30 08:15:00
3:35 AM,70.2,67.1,90,29.91,10.0,SSE,3.5,-,N/A,,Clear,160,2013-08-30 08:35:00
3:55 AM,69.8,66.4,89,29.91,10.0,SSE,3.5,-,N/A,,Clear,150,2013-08-30 08:55:00
4:15 AM,69.4,66.7,91,29.90,10.0,SSE,3.5,-,N/A,,Clear,160,2013-08-30 09:15:00
4:35 AM,69.1,66.4,91,29.90,10.0,SSE,3.5,-,N/A,,Clear,150,2013-08-30 09:35:00
4:55 AM,68.9,66.0,90,29.90,10.0,South,3.5,-,N/A,,Clear,170,2013-08-30 09:55:00
5:15 AM,68.9,66.2,91,29.90,10.0,SSE,3.5,-,N/A,,Clear,150,2013-08-30 10:15:00
5:35 AM,69.1,66.4,91,29.90,10.0,SSE,4.6,-,N/A,,Clear,150,2013-08-30 10:35:00
5:55 AM,68.9,66.0,90,29.90,10.0,Calm,Calm,-,N/A,,Clear,0,2013-08-30 10:55:00
6:15 AM,68.5,65.7,90,29.90,10.0,SE,3.5,-,N/A,,Clear,140,2013-08-30 11:15:00
6:35 AM,67.8,64.9,90,29.91,10.0,Calm,Calm,-,N/A,,Clear,0,2013-08-30 11:35:00
6:55 AM,67.5,64.8,91,29.91,7.0,Calm,Calm,-,N/A,,Clear,0,2013-08-30 11:55:00
7:15 AM,67.8,65.1,91,29.91,7.0,Calm,Calm,-,N/A,,Clear,0,2013-08-30 12:15:00
7:35 AM,68.9,66.0,90,29.92,7.0,Calm,Calm,-,N/A,,Clear,0,2013-08-30 12:35:00
7:55 AM,70.2,66.9,89,29.91,10.0,Calm,Calm,-,N/A,,Clear,0,2013-08-30 12:55:00
9:15 AM,78.3,67.8,70,29.92,10.0,SW,4.6,-,N/A,,Clear,220,2013-08-30 14:15:00
9:35 AM,79.7,68.2,68,29.92,10.0,SW,3.5,-,N/A,,Clear,230,2013-08-30 14:35:00
9:55 AM,81.5,68.5,65,29.92,10.0,West,5.8,-,N/A,,Clear,280,2013-08-30 14:55:00
10:15 AM,82.4,69.1,64,29.93,10.0,WNW,3.5,-,N/A,,Clear,290,2013-08-30 15:15:00
10:35 AM,84.0,68.9,60,29.92,10.0,WNW,3.5,-,N/A,,Clear,300,2013-08-30 15:35:00
10:55 AM,85.5,68.9,57,29.92,10.0,Calm,Calm,-,N/A,,Clear,0,2013-08-30 15:55:00
11:15 AM,86.7,68.9,55,29.92,10.0,Calm,Calm,-,N/A,,Clear,0,2013-08-30 16:15:00
11:35 AM,88.0,69.8,55,29.92,10.0,Calm,Calm,-,N/A,,Clear,0,2013-08-30 16:35:00
11:55 AM,89.1,70.7,54,29.92,10.0,Calm,Calm,-,N/A,,Clear,0,2013-08-30 16:55:00
12:15 PM,89.6,71.4,55,29.91,10.0,Calm,Calm,-,N/A,,Clear,0,2013-08-30 17:15:00
12:35 PM,90.0,70.3,52,29.90,10.0,Calm,Calm,-,N/A,,Clear,0,2013-08-30 17:35:00
12:55 PM,90.7,70.9,52,29.90,10.0,Calm,Calm,-,N/A,,Clear,0,2013-08-30 17:55:00
1:15 PM,91.0,71.2,52,29.90,10.0,North,4.6,-,N/A,,Clear,360,2013-08-30 18:15:00
1:35 PM,92.1,72.3,52,29.90,10.0,NNW,5.8,-,N/A,,Clear,340,2013-08-30 18:35:00
1:55 PM,92.5,72.3,52,29.90,10.0,North,5.8,-,N/A,,Clear,360,2013-08-30 18:55:00
2:15 PM,92.3,73.8,55,29.89,10.0,North,4.6,-,N/A,,Clear,360,2013-08-30 19:15:00
2:35 PM,92.7,73.2,53,29.89,10.0,NNW,5.8,-,N/A,,Clear,340,2013-08-30 19:35:00
2:55 PM,93.4,75.9,57,29.88,10.0,NNW,9.2,-,N/A,,Clear,340,2013-08-30 19:55:00
3:15 PM,93.6,75.9,56,29.88,10.0,NW,4.6,-,N/A,,Clear,320,2013-08-30 20:15:00
3:35 PM,93.4,75.4,56,29.88,10.0,NNW,5.8,-,N/A,,Clear,340,2013-08-30 20:35:00
3:55 PM,94.1,74.7,53,29.87,10.0,North,9.2,-,N/A,,Clear,10,2013-08-30 20:55:00
4:15 PM,93.9,76.1,56,29.87,10.0,NNW,10.4,-,N/A,,Scattered Clouds,340,2013-08-30 21:15:00
4:35 PM,93.4,77.2,59,29.87,10.0,North,13.8,17.3,N/A,,Mostly Cloudy,10,2013-08-30 21:35:00
4:55 PM,91.8,77.5,63,29.87,10.0,North,10.4,-,N/A,,Scattered Clouds,350,2013-08-30 21:55:00
5:15 PM,90.9,76.8,63,29.87,10.0,North,11.5,-,N/A,,Clear,10,2013-08-30 22:15:00
5:35 PM,90.5,76.3,63,29.87,10.0,North,11.5,-,N/A,,Clear,360,2013-08-30 22:35:00
5:55 PM,90.1,75.6,62,29.87,10.0,North,9.2,-,N/A,,Clear,360,2013-08-30 22:55:00
6:15 PM,89.6,76.5,65,29.87,10.0,North,6.9,-,N/A,,Clear,360,2013-08-30 23:15:00
6:35 PM,88.7,76.6,67,29.86,10.0,North,6.9,-,N/A,,Clear,360,2013-08-30 23:35:00
6:55 PM,87.6,76.1,68,29.86,7.0,North,6.9,-,N/A,,Clear,10,2013-08-30 23:55:00
7:15 PM,86.0,76.5,73,29.86,7.0,North,4.6,-,N/A,,Clear,360,2013-08-31 00:15:00
7:35 PM,84.2,76.5,77,29.86,7.0,North,5.8,-,N/A,,Clear,360,2013-08-31 00:35:00
7:55 PM,82.4,76.1,81,29.86,7.0,North,5.8,-,N/A,,Clear,10,2013-08-31 00:55:00
8:15 PM,80.6,75.4,84,29.86,7.0,North,5.8,-,N/A,,Clear,360,2013-08-31 01:15:00
8:35 PM,79.0,74.7,87,29.86,7.0,North,4.6,-,N/A,,Clear,350,2013-08-31 01:35:00
8:55 PM,78.3,74.3,88,29.86,7.0,North,5.8,-,N/A,,Clear,350,2013-08-31 01:55:00
9:15 PM,77.9,73.8,87,29.87,10.0,North,6.9,-,N/A,,Clear,360,2013-08-31 02:15:00
9:35 PM,76.6,72.7,87,29.88,10.0,NW,4.6,-,N/A,,Clear,320,2013-08-31 02:35:00
9:55 PM,75.7,72.1,89,29.88,10.0,NNW,4.6,-,N/A,,Clear,330,2013-08-31 02:55:00
10:15 PM,75.0,71.6,89,29.88,10.0,NNW,5.8,-,N/A,,Clear,340,2013-08-31 03:15:00
10:35 PM,74.3,70.9,89,29.88,10.0,NNW,4.6,-,N/A,,Clear,340,2013-08-31 03:35:00
10:55 PM,73.6,70.7,91,29.88,10.0,NW,5.8,-,N/A,,Clear,320,2013-08-31 03:55:00
11:15 PM,73.8,70.7,90,29.90,10.0,NNW,5.8,-,N/A,,Clear,330,2013-08-31 04:15:00
11:35 PM,73.6,70.3,90,29.89,10.0,NNW,4.6,-,N/A,,Clear,330,2013-08-31 04:35:00
11:55 PM,72.7,69.6,90,29.88,10.0,North,5.8,-,N/A,,Clear,350,2013-08-31 04:55:00